Weather in Manali

India     32°05′17″N   77°07′49″E
temp.,
°C
wind,
m/s
gust,
m/s
humid.,
%
clouds,
%
prec.,
mm/h
press.,
hPa
HPBL,
m
28 february, sun
sun2823:30+1ne228990 3.3 101884
02:30+1ne337339 0.2 101951
05:300ne556639 0.3 102171
08:30+3ne44498 0.0 1021145
11:30+10w11364 0.0 10181478
14:30+12w02290 0.0 10152066
17:30+8wsw12350 0.0 1015254
20:30+2ne55470 0.0 102186
1 march, mon
mon123:30+1ne56410 0.0 1024101
02:300ne55380 0.0 102387
05:300ne55340 0.0 102390
08:30+4ne33320 0.0 1023202
11:30+10sw22230 0.0 10201395
14:30+11sw33230 0.0 10172475
17:30+8sw22340 0.0 1018423
20:30+2ne55430 0.0 1024101
2 march, tue
tue223:30+1ne67310 0.0 1026121
02:30+1ne66260 0.0 1026116
05:30+1ne66250 0.0 1024109
08:30+6nne45250 0.0 1024204
11:30+14sw21180 0.0 10201325
14:30+14sw32170 0.0 10171453
17:30+10sw123119 0.0 1017143
20:30+4ne553532 0.0 102180
3 march, wed
wed323:30+4ne552916 0.0 102281
02:30+3ne552815 0.0 102181
05:30+3ne56307 0.0 102091
08:30+7ne34300 0.0 1021217
11:30+13sw23190 0.0 10181404
14:30+13sw442017 0.0 10153259
17:30+10ssw333025 0.0 10151216
20:30+4ne44430 0.0 102056
4 march, thu
thu423:30+3ne55424 0.0 102289
02:30+3ne454191 0.0 102290
05:30+2ne564369 0.0 1022104
08:30+6ne343525 0.0 1023244
11:30+12w212416 0.0 10192272
14:30+12w232668 0.1 10152451
17:30+9nnw223584 0.1 1015678
20:30+5ne454327 0.0 101989